This demonstration page uses our WeatherBlox Daily Observations layout. Learn more.

Left ArrowRight Arrow

39.51506, -84.39828

Hourly Observations for June 24, 2015

Temp ( °F °C ) Dew Point ( °F °C ) Humidity (%) Winds ( mph kmh ) Pressure ( in mb ) Visibility ( mi km ) Precip ( " mm )
12:15 am 00:15 Clear 65 18.1 60 15.3 84 84 N N/A 30.06 1018 10 16 N/A
12:35 am 00:35 Clear 66 18.9 60 15.6 81 81 N N/A 30.06 1018 10 16 N/A
12:55 am 00:55 Clear 64 18 59 15.2 84 84 N N/A 30.09 1019 10 16 N/A
1:15 am 01:15 Clear 64 17.9 60 15.3 85 85 N N/A 30.09 1019 10 16 N/A
1:35 am 01:35 Clear 62 16.9 59 14.8 88 88 N N/A 30.09 1019 10 16 N/A
1:55 am 01:55 Clear 63 17 59 14.9 88 88 N N/A 30.09 1019 10 16 N/A
2:15 am 02:15 Clear 63 17.2 59 14.8 86 86 N N/A 30.09 1019 10 16 N/A
2:35 am 02:35 Clear 62 16.6 58 14.5 88 88 N 3 6 30.09 1019 10 16 N/A
2:55 am 02:55 Clear 62 16.8 58 14.2 85 85 NNE 3 6 30.09 1019 10 16 N/A
3:15 am 03:15 Clear 63 17 58 14.2 84 84 N 3 6 30.09 1019 10 16 N/A
3:35 am 03:35 Clear 62 16.9 58 14.3 85 85 N 3 6 30.09 1019 10 16 N/A
3:55 am 03:55 Clear 62 16.6 58 14.2 86 86 N 3 6 30.12 1020 10 16 N/A
4:15 am 04:15 Clear 62 16.6 57 13.8 84 84 NNE 3 6 30.12 1020 10 16 N/A
4:35 am 04:35 Clear 62 16.6 57 14 85 85 N N/A 30.12 1020 10 16 N/A
4:55 am 04:55 Clear 62 16.6 57 14 85 85 NNE 3 6 30.12 1020 10 16 N/A
5:15 am 05:15 Clear 62 16.6 57 14 85 85 NNE 3 6 30.12 1020 10 16 N/A
5:35 am 05:35 Clear 62 16.6 57 13.8 84 84 NNE 3 6 30.12 1020 10 16 N/A
5:55 am 05:55 Clear 61 16 56 13.5 85 85 NNE 3 6 30.15 1021 10 16 N/A
6:15 am 06:15 Sunny 62 16.5 57 13.9 85 85 N N/A 30.12 1020 10 16 N/A
6:35 am 06:35 Sunny 62 16.6 57 13.8 84 84 N N/A 30.15 1021 10 16 N/A
6:55 am 06:55 Sunny 62 16.6 58 14.2 86 86 N N/A 30.15 1021 10 16 N/A
7:15 am 07:15 Sunny 62 16.7 58 14.2 85 85 N N/A 30.12 1020 10 16 N/A
7:35 am 07:35 Sunny 64 18 59 15 83 83 N N/A 30.15 1021 10 16 N/A
7:55 am 07:55 Sunny 67 19.5 60 15.3 77 77 NNE 5 7 30.12 1020 10 16 N/A
8:15 am 08:15 Sunny 69 20.8 62 16.5 77 77 N 5 7 30.15 1021 10 16 N/A
8:35 am 08:35 Sunny 69 20.8 61 16 74 74 NNE 3 6 30.15 1021 10 16 N/A
8:55 am 08:55 Sunny 69 20.8 58 14.7 68 68 NNE 3 6 30.15 1021 10 16 N/A
9:15 am 09:15 Sunny 70 21.1 58 14.7 67 67 N N/A 30.15 1021 10 16 N/A
9:35 am 09:35 Sunny 74 23.6 61 16.2 63 63 ENE 3 6 30.15 1021 10 16 N/A
9:55 am 09:55 Sunny 74 23.6 61 16.1 63 63 N N/A 30.15 1021 10 16 N/A
10:15 am 10:15 Sunny 74 23.6 60 15.7 61 61 N N/A 30.15 1021 10 16 N/A
10:35 am 10:35 Sunny 74 23.6 57 14.1 55 55 N N/A 30.15 1021 10 16 N/A
10:55 am 10:55 Sunny 75 23.8 58 14.3 55 55 N N/A 30.15 1021 10 16 N/A
11:15 am 11:15 Sunny 77 25.1 59 15 54 54 N N/A 30.15 1021 10 16 N/A
11:35 am 11:35 Sunny 77 25.1 58 14.2 51 51 E 3 6 30.15 1021 10 16 N/A
11:55 am 11:55 Sunny 78 25.3 53 11.9 43 43 N N/A 30.15 1021 10 16 N/A
12:15 pm 12:15 Sunny 80 26.5 57 13.8 46 46 N N/A 30.15 1021 10 16 N/A
12:35 pm 12:35 Sunny 80 26.5 55 13 43 43 N N/A 30.15 1021 10 16 N/A
12:55 pm 12:55 Sunny 80 26.5 56 13.2 44 44 NW 3 6 30.15 1021 10 16 N/A
1:15 pm 13:15 Sunny 80 26.5 54 12.2 41 41 N N/A 30.15 1021 10 16 N/A
1:35 pm 13:35 Sunny 81 27 55 13 42 42 N N/A 30.15 1021 10 16 N/A
1:55 pm 13:55 Sunny 81 27.2 54 12.4 40 40 N 5 7 30.15 1021 10 16 N/A
2:15 pm 14:15 Sunny 81 27.2 54 12.4 40 40 N 5 7 30.15 1021 10 16 N/A
2:35 pm 14:35 Sunny 81 27.3 56 13.4 42 42 NNW 7 11 30.15 1021 10 16 N/A
2:55 pm 14:55 Sunny 82 28 56 13.1 40 40 N 7 11 30.15 1021 10 16 N/A
3:15 pm 15:15 Sunny 82 28 55 12.7 39 39 NW 9 15 30.18 1022 10 16 N/A
3:35 pm 15:35 Sunny 82 28 55 12.7 39 39 NNW 6 9 30.15 1021 10 16 N/A
3:55 pm 15:55 Sunny 81 27.2 55 12.8 41 41 NNW 8 13 30.18 1022 10 16 N/A
4:15 pm 16:15 Sunny 81 27.4 53 11.7 38 38 NNW 5 7 30.15 1021 10 16 N/A
4:35 pm 16:35 Sunny 80 26.7 54 12.1 40 40 NNE 3 6 30.12 1020 10 16 N/A
4:55 pm 16:55 Sunny 80 26.5 52 11.2 38 38 N N/A 30.12 1020 10 16 N/A
5:15 pm 17:15 Sunny 82 28 52 11.2 35 35 NNE 3 6 30.12 1020 10 16 N/A
5:35 pm 17:35 Sunny 82 27.8 52 11.1 35 35 N N/A 30.09 1019 10 16 N/A
5:55 pm 17:55 Sunny 82 27.7 54 12 38 38 N N/A 30.09 1019 10 16 N/A
6:15 pm 18:15 Sunny 80 26.6 52 11.3 38 38 N N/A 30.09 1019 10 16 N/A
6:35 pm 18:35 Sunny 81 27.2 53 11.9 39 39 N N/A 30.06 1018 10 16 N/A
6:55 pm 18:55 Sunny 81 27.1 54 12 39 39 NNW 5 7 30.06 1018 10 16 N/A
7:15 pm 19:15 Partly Cloudy 81 27.2 53 11.6 38 38 N 3 6 30.09 1019 10 16 N/A
7:35 pm 19:35 Partly Cloudy 80 26.5 56 13.3 44 44 NNW 3 6 30.09 1019 10 16 N/A
7:55 pm 19:55 Sunny 80 26.5 58 14.3 47 47 N N/A 30.09 1019 10 16 N/A
8:15 pm 20:15 Sunny 80 26.5 60 15.5 51 51 N N/A 30.06 1018 10 16 N/A
8:35 pm 20:35 Sunny 77 25.1 65 18.5 67 67 NW 3 6 30.09 1019 10 16 N/A
8:55 pm 20:55 Sunny 74 23.6 66 18.7 74 74 NW 3 6 30.09 1019 10 16 N/A
9:15 pm 21:15 Clear 74 23.6 65 18.3 72 72 NNE 3 6 30.09 1019 10 16 N/A
9:35 pm 21:35 Clear 74 23.6 64 17.7 70 70 N N/A 30.09 1019 10 16 N/A
9:55 pm 21:55 Clear 72 22.3 64 17.9 76 76 N 3 6 30.09 1019 10 16 N/A
10:15 pm 22:15 Clear 72 22.3 64 17.5 74 74 NNW 5 7 30.12 1020 10 16 N/A
10:35 pm 22:35 Clear 71 21.6 62 16.7 74 74 N 5 7 30.12 1020 10 16 N/A
10:55 pm 22:55 Clear 69 20.8 62 16.8 78 78 NW 3 6 30.12 1020 10 16 N/A
11:15 pm 23:15 Clear 69 20.8 63 17 79 79 N N/A 30.09 1019 10 16 N/A
11:35 pm 23:35 Clear 69 20.8 63 17.4 81 81 N N/A 30.09 1019 10 16 N/A
11:55 pm 23:55 Clear 69 20.8 64 18 84 84 N N/A 30.09 1019 10 16 N/A

Powered by AerisWeather